Location: Eymir
(36.7333°N, 29.7833°E)
Time: 06:01:34
(UTC+00:00)

CUTE 1.7 + AOD 2 - Pass Details

Date: 21 May 2026
Orbit: 531 x 545 km, 97.8° (Epoch: 8 June)

Event Time Altitude Azimuth Distance (km) Brightness Sun altitude
Rises 02:08:36 0° 19° (NNE) 2,680 ? -7.9°
Reaches altitude 10° 02:10:48 10° 26° (NNE) 1,785 ? -7.6°
Maximum altitude 02:14:29 43° 99° (E) 749 ? -6.9°
Drops below altitude 10° 02:18:09 10° 172° (S) 1,774 ? -6.3°
Sets 02:20:19 0° 179° (S) 2,661 ? -5.9°
